www.pogodaiklimat.ru

Погода и климат >> Архив погоды >> Буркина-Фасо >> Dori


ПОГОДА в Dori

  • Прогноз погоды в Dori
  • Монитор погоды в Dori
  • Климат города

АРХИВ ПОГОДЫ в Dori

Время (UTC), дата Ветер
(напр.,м/с)
 
Видим.   Явления Облачность Т
(С)
Тd
(С)
f
(%)
Тe
(С)
Тes
(С)
Комфортность P
(гПа)
Po
(гПа)
Тmin
(С)
Tmax
(С)
R
(мм)
R24
(мм)
S
(см)
21 18.04 штиль 0 10 км 9/0
[Ci sp]
+31.7 +11.8 30 +32 +32 жарко 1009.2 978.8
00 19.04 штиль 0 10 км 9/0
[Ci sp]
+28.0 +13.0 40 +30 +30 жарко 1009.4 979.0
03 19.04 штиль 0 10 км 9/0
[Ci sp]
+25.3 +9.3 36 +26 +26 жарко 1008.1 977.8
06 19.04 штиль 0 10 км 9/0
[Ac trans Ci sp]
+23.1 +9.3 41 +25 +25 комфорт 1008.8 978.3 +23.0
09 19.04 В 1 10 км 9/0
[Ac trans Ci sp]
+34.3 +1.8 13 +31 +41 жарко 1010.9 980.5
12 19.04 С 1 10 км 9/0
[Ci sp]
+40.0 +5.4 12 +37 +58 опасность
солнечного
удара
1009.5 979.1
15 19.04 С 2 10 км 9/0
[Ci sp]
+41.8 +6.5 12 +39 +49 очень
жарко
1006.6 976.3
18 19.04 штиль 0 10 км 9/0
[Ci sp]
+38.7 +8.5 16 +37 +37 очень
жарко
1006.7 976.1 +42.3
21 19.04 штиль 0 10 км 9/0
[Ci sp]
+31.8 +12.2 30 +32 +32 жарко 1007.7 977.3
00 20.04 штиль 0 10 км 9/0
[Ci sp]
+29.0 +8.5 28 +29 +29 жарко 1008.1 977.9
03 20.04 штиль 0 10 км 9/0
[Ci sp]
+26.0 +10.1 37 +27 +27 жарко 1006.7 976.5
06 20.04 штиль 0 10 км 9/0
[Ac trans Ci sp]
+25.4 +2.8 23 +24 +24 комфорт 1007.9 977.4 +24.4
09 20.04 С 1 10 км 9/0
[Ac trans Ci sp]
+34.8 -1.3 10 +31 +42 жарко 1009.0 978.6
12 20.04 С 2 6000 м пыль 9/0
[Ci sp]
+41.2 -2.3 7 +37 +55 опасность
солнечного
удара
1007.4 977.2
15 20.04 С 1 8000 м пыль 9/0
[Ci sp]
+42.5 +1.9 8 +39 +50 очень
жарко
1004.9 974.7
18 20.04 штиль 0 10 км 9/0
[Ci sp]
+39.7 +5.8 13 +37 +37 очень
жарко
1004.6 974.3 +42.8
21 20.04 С 1 10 км 9/0
[Ci sp]
+33.7 +6.2 18 +32 +32 жарко 1006.4 976.2
00 21.04 С 1 10 км 9/0
[Ci sp]
+30.8 +4.9 19 +29 +29 жарко 1006.5 976.4
03 21.04 С 1 10 км 9/0
[Ci sp]
+27.7 +5.0 23 +26 +26 жарко 1005.9 975.8
06 21.04 штиль 0 10 км 9/0
[Ci sp]
+24.8 +5.0 28 +24 +24 комфорт 1006.6 976.2 +24.8
09 21.04 В 2 10 км 9/0
[Ci sp]
+34.3 -1.3 10 +31 +40 жарко 1008.9 978.6
12 21.04 В 1 10 км 9/0
[Ci sp]
+40.2 +2.8 10 +37 +58 опасность
солнечного
удара
1008.2 978.1
15 21.04 В 1 10 км 9/0
[Ci sp]
+41.8 +2.6 9 +38 +49 очень
жарко
1005.5 975.4
18 21.04 штиль 0 10 км 9/0
[Ci sp]
+39.4 +6.5 14 +37 +37 очень
жарко
1006.0 975.6 +42.5
21 21.04 штиль 0 10 км 9/0
[Ci sp]
+31.8 +11.2 28 +32 +32 жарко 1007.4 977.1
00 22.04 штиль 0 10 км 9/0
[Ci sp]
+29.0 +13.3 38 +31 +31 жарко 1008.1 977.8
03 22.04 штиль 0 10 км 9/0
[Ci sp]
+28.2 +5.0 23 +27 +27 жарко 1006.9 976.7
06 22.04 штиль 0 10 км 9/0
[Ci sp]
+25.4 +10.4 39 +26 +26 жарко 1007.9 977.5 +25.4
09 22.04 З 2 10 км 9/0
[Ci sp]
+35.0 +17.7 36 +39 +48 очень
душно
1010.1 979.7
12 22.04 С 1 10 км 9/0
[Ci sp]
+40.0 +11.6 18 +39 +60 опасность
солнечного
удара
1008.4 978.1
15 22.04 В 1 10 км 9/0
[Ci sp]
+42.1 +4.6 10 +39 +50 очень
жарко
1005.8 975.7
18 22.04 штиль 0 10 км 9/0
[Ci sp]
+39.8 +6.4 13 +37 +37 очень
жарко
1006.1 975.8 +42.8
21 22.04 штиль 0 10 км 9/0
[Ci sp]
+32.0 +10.0 26 +32 +32 жарко 1007.2 976.9
00 23.04 штиль 0 10 км 9/0
[Ci sp]
+28.5 +10.2 32 +29 +29 жарко 1007.4 977.1
03 23.04 штиль 0 10 км 9/0
[Ci sp]
+27.0 +3.6 22 +26 +26 жарко 1006.2 976.0
06 23.04 штиль 0 10 км 9/0
[Ci sp]
+24.5 +7.0 33 +25 +25 комфорт 1006.5 976.1 +24.5
09 23.04 Ю 2 10 км 9/0
[Ci sp]
+28.0 +5.8 24 +27 +36 жарко 1006.7 976.5
12 23.04 В 2 10 км 9/0
[Ci sp]
+41.4 -1.0 7 +37 +56 опасность
солнечного
удара
1007.8 977.6
15 23.04 В 2 10 км 9/0
[Ci sp]
+44.0 +1.9 8 +41 +50 опасность
перегрева
1005.0 975.0
18 23.04 С 1 10 км 9/0
[Ci sp]
+40.8 +3.2 10 +38 +38 очень
жарко
1005.6 975.3 +43.8
21 23.04 штиль 0 10 км 9/0
[Ci sp]
+34.2 +9.6 22 +33 +33 жарко 1008.1 977.4
00 24.04 штиль 0 10 км 9/0
[Ci sp]
+31.0 +6.6 22 +30 +30 жарко 1007.6 977.5
03 24.04 штиль 0 10 км 9/0
[Ci sp]
+28.7 +5.6 23 +27 +27 жарко 1006.8 976.8
06 24.04 Ю 2 10 км 9/0
[Ci sp]
+26.7 +5.6 26 +26 +26 жарко 1007.7 977.4 +26.7
09 24.04 Ю 2 10 км 9/0
[Ci sp]
+35.6 +13.0 26 +36 +45 очень
жарко
1009.4 979.2
12 24.04 Ю 1 10 км 9/0
[Ci sp]
+41.6 +7.4 13 +39 +61 опасность
солнечного
удара
1007.0 977.0
15 24.04 З 2 10 км 9/0
[Ci sp]
+43.7 +6.4 11 +41 +51 опасность
перегрева
1004.3 974.3
18 24.04 штиль 0 10 км 9/0
[Ci sp]
+41.7 +11.0 16 +40 +41 очень
жарко
1004.7 974.5 +44.1
21 24.04 штиль 0 10 км 9/0
[Ci sp]
+33.5 +14.8 32 +35 +35 душно 1006.0 975.9
00 25.04 штиль 0 10 км 9/0
[Ci sp]
+30.9 +7.9 24 +30 +30 жарко 1005.4 975.3
03 25.04 штиль 0 10 км 9/0
[Ci sp]
+27.3 +8.9 31 +27 +27 жарко 1004.5 974.5
06 25.04 штиль 0 10 км 9/0
[Ci sp]
+27.7 +6.6 26 +27 +27 жарко 1006.5 976.4 +26.0
09 25.04 ЮЗ 2 10 км 9/0
[Ci sp]
+36.0 +18.7 36 +40 +50 очень
душно
1008.4 978.2
12 25.04 ЮЗ 2 10 км 9/0
[Ci sp]
+41.3 +12.4 18 +41 +59 опасность
перегрева
1006.1 976.0
15 25.04 Ю 1 10 км 9/0
[Ci sp]
+43.6 +6.5 11 +41 +52 опасность
перегрева
1003.6 973.6
18 25.04 штиль 0 10 км 9/0
[Ci sp]
+41.8 +12.8 18 +41 +41 опасность
перегрева
1003.5 973.4 +44.3

 

Местоположение метеостанции Dori (Буркина-Фасо): широта 14.03 долгота -0.03 высота над уровнем моря 277 м.

В архиве по умолчанию представлена погода в Dori за последнюю неделю. Архивные данные за месяц целиком и за предыдущие месяцы, начиная с января 2011 года, Вы можете получить, выбрав интересующий диапазон дат из раскрывающегося списка и нажав кнопку "Ввод!".


*Определитесь, кто Вы:
робот инопланетянин человек

Внимание! Время в таблицах - всемирное. Для получения местного времени необходимо прибавить поправку, которая в Dori равна 0 ч.

Смотрите также архив погоды в соседних городах и на ближайших метеорологических станциях:

Погода в Tillabery (Нигер) (161 км)
Погода в Fada N`Gourma (Буркина-Фасо) (227 км)
Погода в Niamey (Нигер) (245 км)
Погода в Ouagadougou (Буркина-Фасо) (247 км)
Погода в Ouahigouya (Буркина-Фасо) (263 км)
Погода в Po (Буркина-Фасо) (343 км)
Погода в Dapaon (Того) (354 км)
Погода в Navrongo (Гана) (367 км)
Погода в Dosso (Нигер) (367 км)
Погода в Boromo (Буркина-Фасо) (404 км)

Пояснения к столбцам:

Ветер - указаны скорость ветра в м/с - средняя за 10 мин, порывы в срок и между сроками (в фигурных скобках) и направление, откуда дует ветер: С - северный, СВ - северо-восточный, В - восточный, ЮВ - юго-восточный, Ю - южный, ЮЗ - юго-западный, З - западный, СЗ - северо-западный.
Видимость - горизонтальная дальность видимости в метрах или километрах. При видимости от 1 до 10 км при отсутствии осадков обычно наблюдается дымка, при ухудшении видимости до 1 км и менее - туман. В сухую погоду видимость может ухудшаться дымом, пылью или мглою.
Явления - указаны атмосферные явления, наблюдавшиеся в срок или в последний час перед сроком; фигурными скобками обозначены явления, наблюдавшиеся между сроками (за 1-3 часа до срока); квадратными скобками обозначены град или гололедные отложения с указанием их диаметра в мм.
Облачность - указаны через наклонную черту общая и нижняя облачность в баллах и высота нижней границы облаков в метрах; квадратными скобками обозначены формы облаков: Ci - перистые, Cs - перисто-слоистые, Cc - перисто-кучевые, Ac - высококучевые, As - высокослоистые, Sc - слоисто-кучевые, Ns - слоисто-дождевые, Cu - кучевые, Cb - кучево-дождевые. Подробнее классификацию облаков см. в Атласе облаков (PDF).
T - Температура воздуха - температура, измеренная на высоте 2 м над землей.
Td - Температура точки росы - температура, при понижении до которой содержащийся в воздухе водяной пар достигнет насыщения.
f - Относительная влажность воздуха - влажноcть воздуха, измеренная на высоте 2 м над землей.
Te - Эффективная температура - температура, которую ощущает одетый по сезону человек в тени. Характеристика душности погоды. При расчете учитывается влияние влажности воздуха и скорости ветра на теплоощущения человека.
Tes - Эффективная температура на солнце - температура, которую ощущает человек, с поправкой на солнечный нагрев. Характеристика знойности погоды. Зависит от высоты солнца над горизонтом, облачности и скорости ветра. Ночью, в пасмурную погоду, а также при ветре 12 м/с и более поправка равна нулю.
P - Атмосферное давление - приведенное к уровню моря атмосферное давление.
Po - Атмосферное давление - измеренное на уровне метеостанции атмосферное давление.
Tmin - Минимальная температура - минимум температуры воздуха на высоте 2 м над землей.
Tmax - Максимальная температура - максимум температуры воздуха на высоте 2 м над землей.
R - Количество осадков - Количество выпавших осадков за период времени, мм. При наведении курсора мыши на число - период времени, за который выпало указанное количество осадков.
R24 - Количество осадков - Количество выпавших осадков за 24 часа, мм.
S - Снежный покров - Высота снежного покрова, см. При наведении курсора мыши на число - состояние снежного покрова и степень покрытия местности в баллах.